| time (UTC) | temp C | wind direction | speed KPH | gust KPH | rain 1hr cm | rain 24hr cm | rain mn cm | humidity % | barometer mb |
| 20260504040202 | 3 | 246 | 0.0 | 0.0 | 0.00 | 0.00 | 0.00 | 93 | 1015.7 |
| 20260504035658 | 3 | 246 | 0.0 | 0.0 | 0.00 | 0.00 | 0.00 | 93 | 1015.7 |
| 20260504035156 | 3 | 246 | 0.0 | 0.0 | 0.00 | 0.00 | 0.00 | 93 | 1015.9 |
| 20260504034653 | 3 | 246 | 0.0 | 0.0 | 0.00 | 0.00 | 0.00 | 93 | 1015.6 |
| 20260504034150 | 4 | 247 | 0.0 | 0.0 | 0.00 | 0.00 | 0.00 | 92 | 1015.6 |
| 20260504033648 | 4 | 246 | 0.0 | 0.0 | 0.00 | 0.00 | 0.00 | 91 | 1015.6 |
| 20260504033145 | 4 | 247 | 0.0 | 0.0 | 0.00 | 0.00 | 0.00 | 91 | 1015.5 |
| 20260504032641 | 5 | 247 | 0.0 | 0.0 | 0.00 | 0.00 | 0.00 | 91 | 1015.6 |
| 20260504032139 | 5 | 247 | 0.0 | 0.0 | 0.00 | 0.00 | 0.00 | 91 | 1015.7 |
| 20260504031636 | 5 | 247 | 0.0 | 0.0 | 0.00 | 0.00 | 0.00 | 91 | 1015.6 |
| 20260504031132 | 5 | 247 | 0.0 | 0.0 | 0.00 | 0.00 | 0.00 | 91 | 1015.5 |
| 20260504030629 | 5 | 247 | 0.0 | 0.0 | 0.00 | 0.00 | 0.00 | 91 | 1015.7 |
| 20260504030125 | 4 | 247 | 0.0 | 0.0 | 0.00 | 0.00 | 0.00 | 91 | 1015.6 |
| 20260504025622 | 4 | 247 | 0.0 | 0.0 | 0.00 | 0.00 | 0.00 | 91 | 1015.7 |
| 20260504025119 | 4 | 247 | 0.0 | 0.0 | 0.00 | 0.00 | 0.00 | 91 | 1015.6 |
| 20260504024617 | 4 | 247 | 0.0 | 1.6 | 0.00 | 0.00 | 0.00 | 91 | 1015.9 |
| 20260504024113 | 4 | 247 | 0.0 | 1.6 | 0.00 | 0.00 | 0.00 | 91 | 1015.9 |
| 20260504023610 | 3 | 247 | 0.0 | 1.6 | 0.00 | 0.00 | 0.00 | 91 | 1015.8 |
| 20260504023105 | 3 | 247 | 0.0 | 1.6 | 0.00 | 0.00 | 0.00 | 90 | 1015.8 |
| 20260504022602 | 3 | 247 | 1.6 | 1.6 | 0.00 | 0.00 | 0.00 | 90 | 1015.8 |
| 20260504022058 | 3 | 247 | 1.6 | 1.6 | 0.00 | 0.00 | 0.00 | 90 | 1015.8 |
| 20260504021556 | 4 | 247 | 1.6 | 1.6 | 0.00 | 0.00 | 0.00 | 89 | 1015.8 |
| 20260504021052 | 4 | 247 | 1.6 | 1.6 | 0.00 | 0.00 | 0.00 | 89 | 1016.0 |
| 20260504020549 | 4 | 247 | 1.6 | 1.6 | 0.00 | 0.00 | 0.00 | 88 | 1015.8 |
| 20260504020046 | 4 | 247 | 0.0 | 0.0 | 0.00 | 0.00 | 0.00 | 88 | 1015.6 |
| 20260504015542 | 5 | 247 | 1.6 | 1.6 | 0.00 | 0.00 | 0.00 | 87 | 1015.6 |
| 20260504015038 | 5 | 247 | 1.6 | 1.6 | 0.00 | 0.00 | 0.00 | 86 | 1015.7 |
| 20260504014535 | 5 | 247 | 0.0 | 1.6 | 0.00 | 0.00 | 0.00 | 86 | 1015.8 |
| 20260504014032 | 5 | 247 | 0.0 | 1.6 | 0.00 | 0.00 | 0.00 | 85 | 1015.8 |
| 20260504013529 | 5 | 247 | 0.0 | 1.6 | 0.00 | 0.00 | 0.00 | 85 | 1015.7 |
| 20260504013021 | 5 | 247 | 1.6 | 1.6 | 0.00 | 0.00 | 0.00 | 85 | 1015.6 |
| 20260504012518 | 5 | 247 | 0.0 | 1.6 | 0.00 | 0.00 | 0.00 | 84 | 1015.7 |
| 20260504012016 | 6 | 247 | 1.6 | 1.6 | 0.00 | 0.00 | 0.00 | 83 | 1015.6 |
| 20260504011512 | 6 | 247 | 1.6 | 1.6 | 0.00 | 0.00 | 0.00 | 82 | 1015.6 |
| 20260504011008 | 6 | 247 | 0.0 | 1.6 | 0.00 | 0.00 | 0.00 | 81 | 1015.5 |
| 20260504010504 | 6 | 246 | 0.0 | 1.6 | 0.00 | 0.00 | 0.00 | 81 | 1015.7 |
| 20260504010000 | 7 | 246 | 0.0 | 0.0 | 0.00 | 0.00 | 0.00 | 80 | 1015.9 |
| 20260504005457 | 7 | 246 | 0.0 | 0.0 | 0.00 | 0.00 | 0.00 | 77 | 1015.6 |
| 20260504004954 | 7 | 246 | 1.6 | 1.6 | 0.00 | 0.00 | 0.00 | 77 | 1015.6 |
| 20260504004452 | 7 | 246 | 0.0 | 0.0 | 0.00 | 0.00 | 0.00 | 75 | 1015.4 |
| 20260504003949 | 7 | 246 | 0.0 | 0.0 | 0.00 | 0.00 | 0.00 | 74 | 1015.5 |
| 20260504003445 | 8 | 246 | 0.0 | 0.0 | 0.00 | 0.00 | 0.00 | 74 | 1015.5 |
| 20260504002942 | 8 | 246 | 0.0 | 0.0 | 0.00 | 0.00 | 0.00 | 76 | 1015.6 |
| 20260504002439 | 8 | 246 | 0.0 | 1.6 | 0.00 | 0.00 | 0.00 | 71 | 1015.7 |
| 20260504001936 | 9 | 246 | 1.6 | 1.6 | 0.00 | 0.00 | 0.00 | 69 | 1015.5 |
| 20260504001434 | 9 | 246 | 3.2 | 3.2 | 0.00 | 0.00 | 0.00 | 63 | 1015.5 |
| 20260504000930 | 10 | 245 | 0.0 | 0.0 | 0.00 | 0.00 | 0.00 | 64 | 1015.6 |
| 20260504000427 | 10 | 247 | 1.6 | 3.2 | 0.00 | 0.00 | 0.00 | 62 | 1015.5 |
| 20260503235925 | 11 | 246 | 0.0 | 0.0 | 0.00 | 0.00 | 0.00 | 61 | 1015.5 |
| 20260503235422 | 11 | 226 | 1.6 | 1.6 | 0.00 | 0.00 | 0.00 | 55 | 1015.5 |
| 20260503234920 | 11 | 250 | 0.0 | 0.0 | 0.00 | 0.00 | 0.00 | 58 | 1015.6 |
| 20260503234417 | 11 | 216 | 1.6 | 1.6 | 0.00 | 0.00 | 0.00 | 50 | 1015.5 |
| 20260503233915 | 12 | 220 | 0.0 | 0.0 | 0.00 | 0.00 | 0.00 | 52 | 1015.6 |
| 20260503233411 | 12 | 220 | 0.0 | 1.6 | 0.00 | 0.00 | 0.00 | 50 | 1015.5 |
| 20260503232907 | 12 | 194 | 3.2 | 3.2 | 0.00 | 0.00 | 0.00 | 41 | 1015.4 |
| 20260503232405 | 13 | 214 | 0.0 | 1.6 | 0.00 | 0.00 | 0.00 | 41 | 1015.5 |
| 20260503231903 | 13 | 205 | 4.8 | 6.4 | 0.00 | 0.00 | 0.00 | 38 | 1015.7 |
| 20260503231400 | 13 | 230 | 4.8 | 4.8 | 0.00 | 0.00 | 0.00 | 38 | 1015.7 |
| 20260503230855 | 13 | 221 | 0.0 | 0.0 | 0.00 | 0.00 | 0.00 | 42 | 1015.7 |
| 20260503230352 | 13 | 222 | 0.0 | 1.6 | 0.00 | 0.00 | 0.00 | 38 | 1015.6 |
| 20260503225850 | 13 | 220 | 1.6 | 1.6 | 0.00 | 0.00 | 0.00 | 38 | 1015.7 |
| 20260503225346 | 13 | 217 | 8.0 | 9.7 | 0.00 | 0.00 | 0.00 | 39 | 1015.6 |
| 20260503224842 | 14 | 209 | 6.4 | 6.4 | 0.00 | 0.00 | 0.00 | 39 | 1015.7 |
| 20260503224340 | 14 | 232 | 0.0 | 1.6 | 0.00 | 0.00 | 0.00 | 37 | 1015.7 |
| 20260503223837 | 14 | 222 | 1.6 | 1.6 | 0.00 | 0.00 | 0.00 | 38 | 1015.9 |
| 20260503223335 | 13 | 339 | 3.2 | 4.8 | 0.00 | 0.00 | 0.00 | 38 | 1015.7 |
| 20260503222830 | 14 | 261 | 1.6 | 1.6 | 0.00 | 0.00 | 0.00 | 38 | 1015.9 |
| 20260503222329 | 14 | 307 | 4.8 | 4.8 | 0.00 | 0.00 | 0.00 | 37 | 1016.0 |
| 20260503221827 | 14 | 270 | 4.8 | 4.8 | 0.00 | 0.00 | 0.00 | 40 | 1016.1 |
| 20260503221325 | 14 | 216 | 3.2 | 4.8 | 0.00 | 0.00 | 0.00 | 39 | 1016.0 |
| 20260503220815 | 13 | 186 | 9.7 | 11.3 | 0.00 | 0.00 | 0.00 | 38 | 1015.9 |
| 20260503220312 | 13 | 129 | 11.3 | 12.9 | 0.00 | 0.00 | 0.00 | 38 | 1015.8 |
| 20260503215809 | 14 | 218 | 3.2 | 4.8 | 0.00 | 0.00 | 0.00 | 37 | 1015.8 |
| 20260503215306 | 13 | 201 | 3.2 | 4.8 | 0.00 | 0.00 | 0.00 | 39 | 1015.9 |
| 20260503214804 | 14 | 205 | 3.2 | 4.8 | 0.00 | 0.00 | 0.00 | 38 | 1016.0 |
| 20260503214301 | 15 | 227 | 1.6 | 1.6 | 0.00 | 0.00 | 0.00 | 38 | 1016.0 |
| 20260503213758 | 13 | 232 | 1.6 | 1.6 | 0.00 | 0.00 | 0.00 | 39 | 1015.9 |
| 20260503213255 | 14 | 220 | 6.4 | 9.7 | 0.00 | 0.00 | 0.00 | 38 | 1015.9 |
| 20260503212752 | 15 | 223 | 8.0 | 11.3 | 0.00 | 0.00 | 0.00 | 37 | 1015.9 |
| 20260503212250 | 15 | 226 | 4.8 | 6.4 | 0.00 | 0.00 | 0.00 | 38 | 1016.0 |
| 20260503211747 | 15 | 191 | 3.2 | 4.8 | 0.00 | 0.00 | 0.00 | 41 | 1015.9 |
| 20260503211243 | 14 | 97 | 8.0 | 12.9 | 0.00 | 0.00 | 0.00 | 38 | 1015.6 |
| 20260503210739 | 13 | 232 | 3.2 | 4.8 | 0.00 | 0.00 | 0.00 | 41 | 1015.9 |
| 20260503210237 | 14 | 208 | 8.0 | 11.3 | 0.00 | 0.00 | 0.00 | 37 | 1015.8 |
| 20260503205732 | 15 | 242 | 1.6 | 1.6 | 0.00 | 0.00 | 0.00 | 36 | 1015.9 |
| 20260503205228 | 15 | 210 | 0.0 | 1.6 | 0.00 | 0.00 | 0.00 | 36 | 1015.9 |
| 20260503204724 | 15 | 247 | 3.2 | 6.4 | 0.00 | 0.00 | 0.00 | 36 | 1016.0 |
| 20260503204223 | 14 | 355 | 4.8 | 9.7 | 0.00 | 0.00 | 0.00 | 38 | 1016.0 |
| 20260503203720 | 14 | 102 | 20.9 | 24.1 | 0.00 | 0.00 | 0.00 | 36 | 1016.3 |
| 20260503203217 | 15 | 167 | 3.2 | 4.8 | 0.00 | 0.00 | 0.00 | 35 | 1016.3 |
| 20260503202714 | 15 | 199 | 4.8 | 6.4 | 0.00 | 0.00 | 0.00 | 35 | 1016.2 |
| 20260503202212 | 14 | 189 | 3.2 | 4.8 | 0.00 | 0.00 | 0.00 | 36 | 1016.3 |
| 20260503201710 | 14 | 341 | 6.4 | 6.4 | 0.00 | 0.00 | 0.00 | 36 | 1016.6 |
| 20260503201207 | 15 | 130 | 3.2 | 9.7 | 0.00 | 0.00 | 0.00 | 38 | 1016.5 |
| 20260503200703 | 15 | 286 | 9.7 | 11.3 | 0.00 | 0.00 | 0.00 | 39 | 1016.6 |
| 20260503200159 | 14 | 196 | 3.2 | 4.8 | 0.00 | 0.00 | 0.00 | 38 | 1016.7 |
| 20260503195656 | 14 | 218 | 6.4 | 9.7 | 0.00 | 0.00 | 0.00 | 40 | 1016.7 |
| 20260503195153 | 15 | 51 | 6.4 | 6.4 | 0.00 | 0.00 | 0.00 | 36 | 1016.8 |
| 20260503194650 | 14 | 254 | 6.4 | 6.4 | 0.00 | 0.00 | 0.00 | 35 | 1016.9 |
| 20260503194146 | 14 | 341 | 4.8 | 9.7 | 0.00 | 0.00 | 0.00 | 36 | 1016.8 |
| 20260503193643 | 13 | 253 | 1.6 | 3.2 | 0.00 | 0.00 | 0.00 | 39 | 1016.9 |
| 20260503193138 | 14 | 227 | 3.2 | 4.8 | 0.00 | 0.00 | 0.00 | 37 | 1016.9 |
| 20260503192634 | 14 | 268 | 4.8 | 6.4 | 0.00 | 0.00 | 0.00 | 38 | 1017.0 |
| 20260503192130 | 13 | 50 | 12.9 | 14.5 | 0.00 | 0.00 | 0.00 | 37 | 1017.0 |
| 20260503191627 | 13 | 147 | 9.7 | 11.3 | 0.00 | 0.00 | 0.00 | 38 | 1017.4 |
| 20260503191124 | 13 | 39 | 4.8 | 6.4 | 0.00 | 0.00 | 0.00 | 38 | 1017.2 |
| 20260503190621 | 13 | 59 | 3.2 | 4.8 | 0.00 | 0.00 | 0.00 | 38 | 1017.3 |
| 20260503190118 | 15 | 11 | 3.2 | 4.8 | 0.00 | 0.00 | 0.00 | 37 | 1017.4 |
| 20260503185614 | 14 | 160 | 3.2 | 4.8 | 0.00 | 0.00 | 0.00 | 42 | 1017.5 |
| 20260503185114 | 14 | 111 | 3.2 | 4.8 | 0.00 | 0.00 | 0.00 | 38 | 1017.7 |
| 20260503184609 | 14 | 353 | 6.4 | 11.3 | 0.00 | 0.00 | 0.00 | 39 | 1017.7 |
| 20260503184106 | 13 | 189 | 4.8 | 6.4 | 0.00 | 0.00 | 0.00 | 39 | 1017.8 |
| 20260503183603 | 13 | 200 | 1.6 | 3.2 | 0.00 | 0.00 | 0.00 | 40 | 1017.9 |
| 20260503183100 | 13 | 28 | 8.0 | 9.7 | 0.00 | 0.00 | 0.00 | 38 | 1017.7 |
| 20260503182559 | 14 | 16 | 6.4 | 9.7 | 0.00 | 0.00 | 0.00 | 39 | 1017.9 |
| 20260503182056 | 14 | 6 | 4.8 | 6.4 | 0.00 | 0.00 | 0.00 | 40 | 1017.9 |
| 20260503181553 | 13 | 207 | 4.8 | 4.8 | 0.00 | 0.00 | 0.00 | 45 | 1017.7 |
| 20260503181049 | 12 | 112 | 9.7 | 11.3 | 0.00 | 0.00 | 0.00 | 40 | 1017.9 |
| 20260503180546 | 13 | 49 | 8.0 | 11.3 | 0.00 | 0.00 | 0.00 | 38 | 1018.0 |
| 20260503180044 | 13 | 231 | 4.8 | 6.4 | 0.00 | 0.00 | 0.00 | 42 | 1017.9 |
| 20260503175541 | 13 | 119 | 3.2 | 3.2 | 0.00 | 0.00 | 0.00 | 44 | 1018.2 |
| 20260503175038 | 13 | 64 | 6.4 | 6.4 | 0.00 | 0.00 | 0.00 | 40 | 1018.1 |
| 20260503174535 | 13 | 46 | 11.3 | 14.5 | 0.00 | 0.00 | 0.00 | 40 | 1018.2 |
| 20260503174031 | 13 | 250 | 4.8 | 6.4 | 0.00 | 0.00 | 0.00 | 40 | 1018.2 |
| 20260503173521 | 12 | 105 | 6.4 | 6.4 | 0.00 | 0.00 | 0.00 | 43 | 1018.5 |
| 20260503173018 | 13 | 267 | 8.0 | 12.9 | 0.00 | 0.00 | 0.00 | 43 | 1018.3 |
| 20260503172516 | 13 | 247 | 4.8 | 6.4 | 0.00 | 0.00 | 0.00 | 40 | 1018.3 |
| 20260503172013 | 13 | 355 | 6.4 | 9.7 | 0.00 | 0.00 | 0.00 | 42 | 1018.6 |
| 20260503171509 | 12 | 228 | 1.6 | 3.2 | 0.00 | 0.00 | 0.00 | 41 | 1018.4 |
| 20260503171006 | 12 | 175 | 6.4 | 12.9 | 0.00 | 0.00 | 0.00 | 42 | 1018.7 |
| 20260503170457 | 11 | 51 | 4.8 | 4.8 | 0.00 | 0.00 | 0.00 | 46 | 1018.8 |
| 20260503150849 | 10 | 352 | 6.4 | 6.4 | 0.00 | 0.00 | 0.00 | 48 | 1019.5 |
| 20260503150345 | 10 | 99 | 9.7 | 12.9 | 0.00 | 0.00 | 0.00 | 44 | 1019.6 |
| 20260503140309 | 8 | 229 | 1.6 | 3.2 | 0.00 | 0.00 | 0.00 | 56 | 1019.8 |
| 20260503131239 | 7 | 201 | 0.0 | 0.0 | 0.00 | 0.00 | 0.00 | 67 | 1019.8 |
| 20260503130737 | 7 | 186 | 11.3 | 12.9 | 0.00 | 0.00 | 0.00 | 66 | 1019.9 |
| 20260503130234 | 6 | 314 | 3.2 | 3.2 | 0.00 | 0.00 | 0.00 | 68 | 1019.8 |
| 20260503120200 | -1 | 264 | 0.0 | 0.0 | 0.00 | 0.00 | 0.00 | 99 | 1019.5 |
| 20260503110627 | -2 | 264 | 0.0 | 0.0 | 0.00 | 0.00 | 0.00 | 99 | 1019.3 |
| 20260503110124 | -2 | 264 | 0.0 | 0.0 | 0.00 | 0.00 | 0.00 | 99 | 1019.2 |
| 20260503090508 | 0 | 263 | 0.0 | 0.0 | 0.00 | 0.00 | 0.00 | 99 | 1018.4 |
| 20260503081428 | 0 | 264 | 0.0 | 0.0 | 0.00 | 0.00 | 0.00 | 99 | 1018.3 |
| 20260503080926 | 0 | 264 | 0.0 | 0.0 | 0.00 | 0.00 | 0.00 | 99 | 1018.2 |
| 20260503080422 | 0 | 264 | 0.0 | 0.0 | 0.00 | 0.00 | 0.00 | 99 | 1018.1 |
| 20260503072858 | -1 | 264 | 0.0 | 0.0 | 0.00 | 0.00 | 0.00 | 99 | 1018.0 |
| 20260503072355 | -1 | 264 | 0.0 | 0.0 | 0.00 | 0.00 | 0.00 | 99 | 1018.1 |
| 20260503071852 | -1 | 264 | 0.0 | 0.0 | 0.00 | 0.00 | 0.00 | 99 | 1018.1 |
| 20260503071349 | -1 | 264 | 0.0 | 0.0 | 0.00 | 0.00 | 0.00 | 99 | 1018.0 |
| 20260503070845 | -1 | 264 | 0.0 | 0.0 | 0.00 | 0.00 | 0.00 | 99 | 1017.9 |
| 20260503070343 | -1 | 264 | 0.0 | 0.0 | 0.00 | 0.00 | 0.00 | 99 | 1017.9 |